Time,TemperatureF,DewpointF,PressureIn,WindDirection,WindDirectionDegrees,WindSpeedMPH,WindSpeedGustMPH,Humidity,HourlyPrecipIn,Conditions,Clouds,dailyrainin,SoftwareType,DateUTC
2013-07-06 00:02:00,55.9,31.3,29.94,SW,225,1.0,2.0,39,0.00,,,0.00,meteohub,2013-07-06 07:02:00,
2013-07-06 00:07:00,55.4,31.5,29.94,SW,225,2.0,2.0,40,0.00,,,0.00,meteohub,2013-07-06 07:07:00,
2013-07-06 00:12:00,54.9,31.6,29.94,East,90,1.0,2.0,41,0.00,,,0.00,meteohub,2013-07-06 07:12:00,
2013-07-06 00:17:00,54.5,31.3,29.94,SE,135,0.0,2.0,41,0.00,,,0.00,meteohub,2013-07-06 07:17:00,
2013-07-06 00:22:00,54.1,30.9,29.94,East,90,2.0,2.0,41,0.00,,,0.00,meteohub,2013-07-06 07:22:00,
2013-07-06 00:27:00,53.8,31.3,29.94,SW,225,2.0,2.0,42,0.00,,,0.00,meteohub,2013-07-06 07:27:00,
2013-07-06 00:32:00,53.6,31.6,29.94,North,0,1.0,2.0,43,0.00,,,0.00,meteohub,2013-07-06 07:32:00,
2013-07-06 00:37:00,53.4,32.0,29.94,SW,225,0.0,2.0,44,0.00,,,0.00,meteohub,2013-07-06 07:37:00,
2013-07-06 00:42:00,53.2,31.8,29.94,SW,225,1.0,2.0,44,0.00,,,0.00,meteohub,2013-07-06 07:42:00,
2013-07-06 00:47:00,53.1,32.4,29.94,South,180,2.0,2.0,45,0.00,,,0.00,meteohub,2013-07-06 07:47:00,
2013-07-06 00:52:00,53.1,32.4,29.94,NW,315,2.0,2.0,45,0.00,,,0.00,meteohub,2013-07-06 07:52:00,
2013-07-06 00:57:00,53.1,32.4,29.94,ESE,113,1.0,2.0,45,0.00,,,0.00,meteohub,2013-07-06 07:57:00,
2013-07-06 01:02:00,53.2,33.1,29.94,NE,45,1.0,2.0,46,0.00,,,0.00,meteohub,2013-07-06 08:02:00,
2013-07-06 01:07:00,52.9,32.2,29.94,NW,315,2.0,2.0,45,0.00,,,0.00,meteohub,2013-07-06 08:07:00,
2013-07-06 01:12:00,52.7,33.1,29.94,SW,225,2.0,2.0,47,0.00,,,0.00,meteohub,2013-07-06 08:12:00,
2013-07-06 01:17:00,52.5,32.9,29.94,SW,225,2.0,2.0,47,0.00,,,0.00,meteohub,2013-07-06 08:17:00,
2013-07-06 01:22:00,52.2,33.6,29.94,SW,225,1.0,2.0,49,0.00,,,0.00,meteohub,2013-07-06 08:22:00,
2013-07-06 01:27:00,52.0,33.4,29.93,NW,315,2.0,2.0,49,0.00,,,0.00,meteohub,2013-07-06 08:27:00,
2013-07-06 01:32:00,51.6,33.6,29.93,South,180,1.0,2.0,50,0.00,,,0.00,meteohub,2013-07-06 08:32:00,
2013-07-06 01:37:00,51.4,34.0,29.94,South,180,1.0,2.0,51,0.00,,,0.00,meteohub,2013-07-06 08:37:00,
2013-07-06 01:42:00,51.1,33.6,29.94,South,180,0.0,2.0,51,0.00,,,0.00,meteohub,2013-07-06 08:42:00,
2013-07-06 01:47:00,50.7,33.3,29.94,South,180,0.0,1.0,51,0.00,,,0.00,meteohub,2013-07-06 08:47:00,
2013-07-06 01:52:00,50.4,33.4,29.94,South,180,1.0,1.0,52,0.00,,,0.00,meteohub,2013-07-06 08:52:00,
2013-07-06 01:57:00,50.0,33.1,29.94,SE,135,1.0,2.0,52,0.00,,,0.00,meteohub,2013-07-06 08:57:00,
2013-07-06 02:02:00,50.0,33.6,29.93,SE,135,0.0,2.0,53,0.00,,,0.00,meteohub,2013-07-06 09:02:00,
2013-07-06 02:07:00,49.8,33.8,29.94,West,270,2.0,2.0,54,0.00,,,0.00,meteohub,2013-07-06 09:07:00,
2013-07-06 02:12:00,49.8,34.3,29.94,SW,225,1.0,2.0,55,0.00,,,0.00,meteohub,2013-07-06 09:12:00,
2013-07-06 02:17:00,49.6,34.2,29.94,SW,225,1.0,2.0,55,0.00,,,0.00,meteohub,2013-07-06 09:17:00,
2013-07-06 02:22:00,49.5,34.3,29.94,SW,225,0.0,2.0,56,0.00,,,0.00,meteohub,2013-07-06 09:22:00,
2013-07-06 02:27:00,49.3,34.2,29.94,SW,225,0.0,2.0,56,0.00,,,0.00,meteohub,2013-07-06 09:27:00,
2013-07-06 02:32:00,48.9,34.0,29.94,South,180,0.0,1.0,56,0.00,,,0.00,meteohub,2013-07-06 09:32:00,
2013-07-06 02:38:00,48.7,34.2,29.94,South,180,1.0,1.0,57,0.00,,,0.00,meteohub,2013-07-06 09:38:00,
2013-07-06 02:44:00,48.6,34.0,29.94,East,90,0.0,1.0,57,0.00,,,0.00,meteohub,2013-07-06 09:44:00,
2013-07-06 02:50:00,48.2,33.6,29.94,SW,225,2.0,2.0,57,0.00,,,0.00,meteohub,2013-07-06 09:50:00,
2013-07-06 02:56:00,47.8,33.8,29.94,South,180,0.0,2.0,58,0.00,,,0.00,meteohub,2013-07-06 09:56:00,
2013-07-06 03:02:00,47.5,33.4,29.94,SW,225,2.0,2.0,58,0.00,,,0.00,meteohub,2013-07-06 10:02:00,
2013-07-06 03:07:00,47.1,33.1,29.94,South,180,0.0,2.0,58,0.00,,,0.00,meteohub,2013-07-06 10:07:00,
2013-07-06 03:12:00,46.9,32.9,29.94,SW,225,2.0,2.0,58,0.00,,,0.00,meteohub,2013-07-06 10:12:00,
2013-07-06 03:17:00,46.8,32.7,29.94,SW,225,1.0,2.0,58,0.00,,,0.00,meteohub,2013-07-06 10:17:00,
2013-07-06 03:22:00,46.6,32.5,29.94,SW,225,1.0,2.0,58,0.00,,,0.00,meteohub,2013-07-06 10:22:00,
2013-07-06 03:27:00,46.6,32.5,29.94,SW,225,1.0,2.0,58,0.00,,,0.00,meteohub,2013-07-06 10:27:00,
2013-07-06 03:32:00,46.4,32.4,29.93,SW,225,1.0,2.0,58,0.00,,,0.00,meteohub,2013-07-06 10:32:00,
2013-07-06 03:37:00,46.2,32.7,29.93,NE,45,1.0,2.0,59,0.00,,,0.00,meteohub,2013-07-06 10:37:00,
2013-07-06 03:42:00,46.0,32.5,29.93,SE,135,1.0,2.0,59,0.00,,,0.00,meteohub,2013-07-06 10:42:00,
2013-07-06 03:47:00,45.7,32.2,29.93,SW,225,1.0,2.0,59,0.00,,,0.00,meteohub,2013-07-06 10:47:00,
2013-07-06 03:52:00,45.5,32.0,29.94,SW,225,0.0,2.0,59,0.00,,,0.00,meteohub,2013-07-06 10:52:00,
2013-07-06 03:57:00,45.3,32.2,29.93,SW,225,1.0,2.0,60,0.00,,,0.00,meteohub,2013-07-06 10:57:00,
2013-07-06 04:02:00,45.1,32.0,29.93,SW,225,2.0,2.0,60,0.00,,,0.00,meteohub,2013-07-06 11:02:00,
2013-07-06 04:07:00,45.1,32.9,29.94,East,90,1.0,2.0,62,0.00,,,0.00,meteohub,2013-07-06 11:07:00,
2013-07-06 04:12:00,45.0,32.7,29.93,South,180,1.0,2.0,62,0.00,,,0.00,meteohub,2013-07-06 11:12:00,
2013-07-06 04:17:00,44.8,32.5,29.93,SE,135,1.0,2.0,62,0.00,,,0.00,meteohub,2013-07-06 11:17:00,
2013-07-06 04:22:00,44.6,32.4,29.93,SE,135,1.0,2.0,62,0.00,,,0.00,meteohub,2013-07-06 11:22:00,
2013-07-06 04:27:00,44.4,32.5,29.93,East,90,0.0,2.0,63,0.00,,,0.00,meteohub,2013-07-06 11:27:00,
2013-07-06 04:32:00,44.4,32.5,29.93,South,180,1.0,2.0,63,0.00,,,0.00,meteohub,2013-07-06 11:32:00,
2013-07-06 04:37:00,44.2,32.4,29.93,SE,135,0.0,2.0,63,0.00,,,0.00,meteohub,2013-07-06 11:37:00,
2013-07-06 04:42:00,44.2,32.4,29.93,South,180,1.0,2.0,63,0.00,,,0.00,meteohub,2013-07-06 11:42:00,
2013-07-06 04:47:00,44.1,31.8,29.93,South,180,1.0,2.0,62,0.00,,,0.00,meteohub,2013-07-06 11:47:00,
2013-07-06 04:52:00,43.7,32.0,29.93,South,180,1.0,2.0,63,0.00,,,0.00,meteohub,2013-07-06 11:52:00,
2013-07-06 04:57:00,43.5,31.8,29.93,South,180,0.0,2.0,63,0.00,,,0.00,meteohub,2013-07-06 11:57:00,
2013-07-06 05:02:00,43.2,31.5,29.93,East,90,2.0,2.0,63,0.00,,,0.00,meteohub,2013-07-06 12:02:00,
2013-07-06 05:07:00,43.0,31.3,29.93,East,90,2.0,2.0,63,0.00,,,0.00,meteohub,2013-07-06 12:07:00,
2013-07-06 05:12:00,43.2,31.5,29.93,SE,135,2.0,3.0,63,0.00,,,0.00,meteohub,2013-07-06 12:12:00,
2013-07-06 05:17:00,43.0,30.9,29.94,SW,225,1.0,3.0,62,0.00,,,0.00,meteohub,2013-07-06 12:17:00,
2013-07-06 05:22:00,42.6,31.3,29.94,South,180,2.0,3.0,64,0.00,,,0.00,meteohub,2013-07-06 12:22:00,
2013-07-06 05:27:00,42.4,31.1,29.94,South,180,0.0,2.0,64,0.00,,,0.00,meteohub,2013-07-06 12:27:00,
2013-07-06 05:32:00,42.3,30.9,29.94,South,180,0.0,2.0,64,0.00,,,0.00,meteohub,2013-07-06 12:32:00,
2013-07-06 05:37:00,42.1,30.7,29.94,SE,135,2.0,2.0,64,0.00,,,0.00,meteohub,2013-07-06 12:37:00,
2013-07-06 05:42:00,42.1,31.1,29.94,South,180,1.0,2.0,65,0.00,,,0.00,meteohub,2013-07-06 12:42:00,
2013-07-06 05:47:00,42.1,31.1,29.94,South,180,1.0,2.0,65,0.00,,,0.00,meteohub,2013-07-06 12:47:00,
2013-07-06 05:52:00,42.1,31.5,29.94,SW,225,1.0,2.0,66,0.00,,,0.00,meteohub,2013-07-06 12:52:00,
2013-07-06 05:57:00,42.3,31.6,29.94,East,90,2.0,2.0,66,0.00,,,0.00,meteohub,2013-07-06 12:57:00,
2013-07-06 06:02:00,42.8,31.8,29.94,SE,135,2.0,2.0,65,0.00,,,0.00,meteohub,2013-07-06 13:02:00,
2013-07-06 06:07:00,43.7,32.4,29.94,SE,135,3.0,3.0,64,0.00,,,0.00,meteohub,2013-07-06 13:07:00,
2013-07-06 06:12:00,44.2,32.9,29.94,East,90,2.0,3.0,64,0.00,,,0.00,meteohub,2013-07-06 13:12:00,
2013-07-06 06:17:00,44.8,32.5,29.94,East,90,4.0,4.0,62,0.00,,,0.00,meteohub,2013-07-06 13:17:00,
2013-07-06 06:22:00,45.1,32.5,29.94,NE,45,4.0,4.0,61,0.00,,,0.00,meteohub,2013-07-06 13:22:00,
2013-07-06 06:27:00,45.7,32.5,29.94,East,90,4.0,4.0,60,0.00,,,0.00,meteohub,2013-07-06 13:27:00,
2013-07-06 06:32:00,45.9,32.7,29.94,East,90,4.0,5.0,60,0.00,,,0.00,meteohub,2013-07-06 13:32:00,
2013-07-06 06:37:00,46.2,32.7,29.94,ENE,68,3.0,5.0,59,0.00,,,0.00,meteohub,2013-07-06 13:37:00,
2013-07-06 06:42:00,46.9,33.8,29.94,East,90,3.0,5.0,60,0.00,,,0.00,meteohub,2013-07-06 13:42:00,
2013-07-06 06:47:00,47.3,33.6,29.94,NE,45,4.0,5.0,59,0.00,,,0.00,meteohub,2013-07-06 13:47:00,
2013-07-06 06:52:00,48.0,34.0,29.94,NE,45,3.0,4.0,58,0.00,,,0.00,meteohub,2013-07-06 13:52:00,
2013-07-06 06:57:00,48.7,33.8,29.94,NE,45,2.0,4.0,56,0.00,,,0.00,meteohub,2013-07-06 13:57:00,
2013-07-06 07:02:00,49.5,34.3,29.94,East,90,4.0,4.0,56,0.00,,,0.00,meteohub,2013-07-06 14:02:00,
2013-07-06 07:07:00,49.8,34.3,29.94,NE,45,4.0,4.0,55,0.00,,,0.00,meteohub,2013-07-06 14:07:00,
2013-07-06 07:12:00,50.4,33.8,29.95,SE,135,3.0,4.0,53,0.00,,,0.00,meteohub,2013-07-06 14:12:00,
2013-07-06 07:17:00,50.4,33.8,29.94,SE,135,4.0,4.0,53,0.00,,,0.00,meteohub,2013-07-06 14:17:00,
2013-07-06 07:22:00,50.7,34.7,29.94,East,90,3.0,4.0,54,0.00,,,0.00,meteohub,2013-07-06 14:22:00,
2013-07-06 07:27:00,51.4,35.4,29.94,East,90,3.0,5.0,54,0.00,,,0.00,meteohub,2013-07-06 14:27:00,
2013-07-06 07:32:00,52.0,35.4,29.94,NE,45,2.0,5.0,53,0.00,,,0.00,meteohub,2013-07-06 14:32:00,
2013-07-06 07:37:00,52.3,35.2,29.94,SE,135,3.0,4.0,52,0.00,,,0.00,meteohub,2013-07-06 14:37:00,
2013-07-06 07:42:00,52.9,35.8,29.94,East,90,4.0,4.0,52,0.00,,,0.00,meteohub,2013-07-06 14:42:00,
2013-07-06 07:47:00,53.6,35.4,29.94,ENE,68,5.0,5.0,50,0.00,,,0.00,meteohub,2013-07-06 14:47:00,
2013-07-06 07:52:00,54.3,36.1,29.94,East,90,2.0,5.0,50,0.00,,,0.00,meteohub,2013-07-06 14:52:00,
2013-07-06 07:57:00,55.2,36.9,29.94,ENE,68,2.0,5.0,50,0.00,,,0.00,meteohub,2013-07-06 14:57:00,
2013-07-06 08:02:00,55.8,36.9,29.94,East,90,4.0,5.0,49,0.00,,,0.00,meteohub,2013-07-06 15:02:00,
2013-07-06 08:07:00,56.3,36.9,29.94,NE,45,2.0,4.0,48,0.00,,,0.00,meteohub,2013-07-06 15:07:00,
2013-07-06 08:12:00,57.4,37.4,29.94,SW,225,2.0,4.0,47,0.00,,,0.00,meteohub,2013-07-06 15:12:00,
2013-07-06 08:17:00,57.7,37.0,29.94,ESE,113,4.0,4.0,46,0.00,,,0.00,meteohub,2013-07-06 15:17:00,
2013-07-06 08:22:00,58.6,37.9,29.94,East,90,3.0,4.0,46,0.00,,,0.00,meteohub,2013-07-06 15:22:00,
2013-07-06 08:27:00,59.2,36.7,29.93,East,90,4.0,4.0,43,0.00,,,0.00,meteohub,2013-07-06 15:27:00,
2013-07-06 08:32:00,60.1,37.6,29.93,SE,135,3.0,4.0,43,0.00,,,0.00,meteohub,2013-07-06 15:32:00,
2013-07-06 08:37:00,60.8,36.9,29.93,SE,135,3.0,4.0,41,0.00,,,0.00,meteohub,2013-07-06 15:37:00,
2013-07-06 08:42:00,61.2,36.0,29.94,SE,135,2.0,4.0,39,0.00,,,0.00,meteohub,2013-07-06 15:42:00,
2013-07-06 08:47:00,61.7,37.2,29.94,SE,135,4.0,4.0,40,0.00,,,0.00,meteohub,2013-07-06 15:47:00,
2013-07-06 08:52:00,62.6,37.2,29.93,SE,135,2.0,4.0,39,0.00,,,0.00,meteohub,2013-07-06 15:52:00,
2013-07-06 08:57:00,64.0,37.9,29.92,NE,45,3.0,4.0,38,0.00,,,0.00,meteohub,2013-07-06 15:57:00,
2013-07-06 09:03:00,65.3,37.6,29.93,NE,45,4.0,4.0,36,0.00,,,0.00,meteohub,2013-07-06 16:03:00,
2013-07-06 09:09:00,66.0,38.3,29.93,East,90,3.0,4.0,36,0.00,,,0.00,meteohub,2013-07-06 16:09:00,
2013-07-06 09:15:00,66.2,37.8,29.92,North,0,2.0,5.0,35,0.00,,,0.00,meteohub,2013-07-06 16:15:00,
2013-07-06 09:21:00,66.6,38.1,29.92,NE,45,5.0,5.0,35,0.00,,,0.00,meteohub,2013-07-06 16:21:00,
2013-07-06 09:27:00,67.5,38.1,29.92,NE,45,4.0,5.0,34,0.00,,,0.00,meteohub,2013-07-06 16:27:00,
2013-07-06 09:32:00,67.5,36.5,29.92,NE,45,4.0,6.0,32,0.00,,,0.00,meteohub,2013-07-06 16:32:00,
2013-07-06 09:37:00,67.8,37.6,29.92,North,0,2.0,6.0,33,0.00,,,0.00,meteohub,2013-07-06 16:37:00,
2013-07-06 09:42:00,68.0,37.8,29.92,North,0,2.0,6.0,33,0.00,,,0.00,meteohub,2013-07-06 16:42:00,
2013-07-06 09:47:00,68.0,37.8,29.92,NE,45,4.0,6.0,33,0.00,,,0.00,meteohub,2013-07-06 16:47:00,
2013-07-06 09:54:00,68.7,36.9,29.92,West,270,2.0,4.0,31,0.00,,,0.00,meteohub,2013-07-06 16:54:00,
2013-07-06 09:59:00,69.4,37.4,29.92,East,90,3.0,4.0,31,0.00,,,0.00,meteohub,2013-07-06 16:59:00,
2013-07-06 10:06:00,69.1,37.2,29.92,SE,135,1.0,7.0,31,0.00,,,0.00,meteohub,2013-07-06 17:06:00,
2013-07-06 10:12:00,69.1,37.2,29.91,NE,45,6.0,7.0,31,0.00,,,0.00,meteohub,2013-07-06 17:12:00,
2013-07-06 10:17:00,69.6,36.9,29.92,West,270,2.0,8.0,30,0.00,,,0.00,meteohub,2013-07-06 17:17:00,
2013-07-06 10:22:00,69.4,36.7,29.91,SE,135,3.0,8.0,30,0.00,,,0.00,meteohub,2013-07-06 17:22:00,
2013-07-06 10:28:00,69.6,39.2,29.91,West,270,3.0,8.0,33,0.00,,,0.00,meteohub,2013-07-06 17:28:00,
2013-07-06 10:37:00,69.8,37.0,29.91,NE,45,4.0,4.0,30,0.00,,,0.00,meteohub,2013-07-06 17:37:00,
2013-07-06 10:44:00,70.5,38.5,29.91,NW,315,5.0,5.0,31,0.00,,,0.00,meteohub,2013-07-06 17:44:00,
2013-07-06 10:50:00,71.1,37.2,29.91,NW,315,4.0,6.0,29,0.00,,,0.00,meteohub,2013-07-06 17:50:00,
2013-07-06 10:56:00,72.0,37.9,29.90,NE,45,2.0,6.0,29,0.00,,,0.00,meteohub,2013-07-06 17:56:00,
2013-07-06 11:02:00,72.9,37.8,29.90,NE,45,4.0,6.0,28,0.00,,,0.00,meteohub,2013-07-06 18:02:00,
2013-07-06 11:08:00,72.9,37.8,29.91,NE,45,2.0,4.0,28,0.00,,,0.00,meteohub,2013-07-06 18:08:00,
2013-07-06 11:14:00,73.9,39.7,29.90,ESE,113,3.0,5.0,29,0.00,,,0.00,meteohub,2013-07-06 18:14:00,
2013-07-06 11:21:00,75.7,38.5,29.90,North,0,4.0,5.0,26,0.00,,,0.00,meteohub,2013-07-06 18:21:00,
2013-07-06 11:27:00,77.0,37.4,29.90,West,270,2.0,4.0,24,0.00,,,0.00,meteohub,2013-07-06 18:27:00,
2013-07-06 11:32:00,76.8,36.1,29.89,West,270,2.0,5.0,23,0.00,,,0.00,meteohub,2013-07-06 18:32:00,
2013-07-06 11:37:00,77.4,37.8,29.89,WNW,293,3.0,5.0,24,0.00,,,0.00,meteohub,2013-07-06 18:37:00,
2013-07-06 11:42:00,77.4,35.6,29.89,East,90,4.0,5.0,22,0.00,,,0.00,meteohub,2013-07-06 18:42:00,
2013-07-06 11:47:00,78.1,36.1,29.89,West,270,4.0,5.0,22,0.00,,,0.00,meteohub,2013-07-06 18:47:00,
2013-07-06 11:52:00,77.7,34.7,29.89,South,180,4.0,6.0,21,0.00,,,0.00,meteohub,2013-07-06 18:52:00,
2013-07-06 11:57:00,77.7,34.7,29.89,NW,315,4.0,6.0,21,0.00,,,0.00,meteohub,2013-07-06 18:57:00,
2013-07-06 12:02:00,77.7,33.4,29.89,NW,315,4.0,6.0,20,0.00,,,0.00,meteohub,2013-07-06 19:02:00,
2013-07-06 12:08:00,77.4,33.1,29.88,East,90,2.0,4.0,20,0.00,,,0.00,meteohub,2013-07-06 19:08:00,
2013-07-06 12:14:00,77.9,34.9,29.88,NE,45,7.0,7.0,21,0.00,,,0.00,meteohub,2013-07-06 19:14:00,
2013-07-06 12:19:00,78.3,32.5,29.88,East,90,4.0,8.0,19,0.00,,,0.00,meteohub,2013-07-06 19:19:00,
2013-07-06 12:26:00,78.1,25.0,29.88,East,90,3.0,8.0,14,0.00,,,0.00,meteohub,2013-07-06 19:26:00,
2013-07-06 12:32:00,78.1,26.6,29.88,SW,225,2.0,8.0,15,0.00,,,0.00,meteohub,2013-07-06 19:32:00,
2013-07-06 12:39:00,78.8,21.9,29.88,South,180,6.0,8.0,12,0.00,,,0.00,meteohub,2013-07-06 19:39:00,
2013-07-06 12:45:00,79.2,20.1,29.88,NE,45,6.0,6.0,11,0.00,,,0.00,meteohub,2013-07-06 19:45:00,
2013-07-06 12:51:00,79.7,18.3,29.88,SE,135,2.0,8.0,10,0.00,,,0.00,meteohub,2013-07-06 19:51:00,
2013-07-06 12:57:00,80.4,18.9,29.88,NE,45,4.0,8.0,10,0.00,,,0.00,meteohub,2013-07-06 19:57:00,
2013-07-06 13:02:00,80.1,18.5,29.88,South,180,2.0,8.0,10,0.00,,,0.00,meteohub,2013-07-06 20:02:00,
2013-07-06 13:07:00,80.1,26.6,29.88,NW,315,4.0,6.0,14,0.00,,,0.00,meteohub,2013-07-06 20:07:00,
2013-07-06 13:13:00,80.6,23.4,29.88,NW,315,8.0,8.0,12,0.00,,,0.00,meteohub,2013-07-06 20:13:00,
2013-07-06 13:19:00,81.3,19.6,29.88,North,0,4.0,8.0,10,0.00,,,0.00,meteohub,2013-07-06 20:19:00,
2013-07-06 13:25:00,82.4,24.6,29.87,NE,45,9.0,9.0,12,0.00,,,0.00,meteohub,2013-07-06 20:25:00,
2013-07-06 13:32:00,82.8,25.0,29.87,NE,45,4.0,9.0,12,0.00,,,0.00,meteohub,2013-07-06 20:32:00,
2013-07-06 13:38:00,82.9,25.2,29.87,NNE,23,4.0,9.0,12,0.00,,,0.00,meteohub,2013-07-06 20:38:00,
2013-07-06 13:44:00,82.9,25.2,29.87,North,0,3.0,9.0,12,0.00,,,0.00,meteohub,2013-07-06 20:44:00,
2013-07-06 13:50:00,82.8,25.0,29.86,North,0,4.0,9.0,12,0.00,,,0.00,meteohub,2013-07-06 20:50:00,
2013-07-06 13:57:00,83.1,25.3,29.86,North,0,8.0,9.0,12,0.00,,,0.00,meteohub,2013-07-06 20:57:00,
2013-07-06 14:02:00,83.1,27.1,29.86,NE,45,5.0,8.0,13,0.00,,,0.00,meteohub,2013-07-06 21:02:00,
2013-07-06 14:07:00,83.8,25.9,29.86,NE,45,7.0,8.0,12,0.00,,,0.00,meteohub,2013-07-06 21:07:00,
2013-07-06 14:14:00,84.0,25.9,29.86,NE,45,7.0,12.0,12,0.00,,,0.00,meteohub,2013-07-06 21:14:00,
2013-07-06 14:20:00,84.4,24.1,29.86,West,270,6.0,10.0,11,0.00,,,0.00,meteohub,2013-07-06 21:20:00,
2013-07-06 14:27:00,84.2,24.1,29.86,South,180,6.0,10.0,11,0.00,,,0.00,meteohub,2013-07-06 21:27:00,
2013-07-06 14:32:00,83.7,25.7,29.86,North,0,3.0,8.0,12,0.00,,,0.00,meteohub,2013-07-06 21:32:00,
2013-07-06 14:37:00,84.2,24.1,29.86,NE,45,5.0,9.0,11,0.00,,,0.00,meteohub,2013-07-06 21:37:00,
2013-07-06 14:42:00,84.9,24.6,29.85,West,270,7.0,11.0,11,0.00,,,0.00,meteohub,2013-07-06 21:42:00,
2013-07-06 14:47:00,85.1,24.6,29.85,NE,45,5.0,11.0,11,0.00,,,0.00,meteohub,2013-07-06 21:47:00,
2013-07-06 14:54:00,85.3,24.8,29.85,West,270,5.0,11.0,11,0.00,,,0.00,meteohub,2013-07-06 21:54:00,
2013-07-06 15:00:00,84.4,24.1,29.85,North,0,6.0,8.0,11,0.00,,,0.00,meteohub,2013-07-06 22:00:00,
2013-07-06 15:06:00,84.4,24.1,29.85,North,0,7.0,9.0,11,0.00,,,0.00,meteohub,2013-07-06 22:06:00,
2013-07-06 15:12:00,84.2,24.1,29.85,SW,225,8.0,9.0,11,0.00,,,0.00,meteohub,2013-07-06 22:12:00,
2013-07-06 15:17:00,84.0,25.9,29.85,West,270,4.0,9.0,12,0.00,,,0.00,meteohub,2013-07-06 22:17:00,
2013-07-06 15:22:00,84.6,24.3,29.85,NW,315,4.0,9.0,11,0.00,,,0.00,meteohub,2013-07-06 22:22:00,
2013-07-06 15:27:00,85.1,24.6,29.85,NW,315,5.0,9.0,11,0.00,,,0.00,meteohub,2013-07-06 22:27:00,
2013-07-06 15:33:00,85.6,25.2,29.84,North,0,2.0,8.0,11,0.00,,,0.00,meteohub,2013-07-06 22:33:00,
2013-07-06 15:39:00,85.8,25.2,29.84,SE,135,5.0,8.0,11,0.00,,,0.00,meteohub,2013-07-06 22:39:00,
2013-07-06 15:46:00,85.6,25.2,29.84,NE,45,4.0,11.0,11,0.00,,,0.00,meteohub,2013-07-06 22:46:00,
2013-07-06 15:52:00,84.7,24.4,29.85,NNE,23,4.0,11.0,11,0.00,,,0.00,meteohub,2013-07-06 22:52:00,
2013-07-06 15:59:00,85.1,24.6,29.84,NW,315,3.0,11.0,11,0.00,,,0.00,meteohub,2013-07-06 22:59:00,
2013-07-06 16:05:00,84.9,24.6,29.84,NE,45,8.0,9.0,11,0.00,,,0.00,meteohub,2013-07-06 23:05:00,
2013-07-06 16:12:00,84.6,24.3,29.84,North,0,8.0,12.0,11,0.00,,,0.00,meteohub,2013-07-06 23:12:00,
2013-07-06 16:18:00,85.5,25.0,29.83,WSW,248,8.0,12.0,11,0.00,,,0.00,meteohub,2013-07-06 23:18:00,
2013-07-06 16:24:00,85.8,25.2,29.84,NW,315,8.0,12.0,11,0.00,,,0.00,meteohub,2013-07-06 23:24:00,
2013-07-06 16:32:00,85.5,25.0,29.84,North,0,6.0,11.0,11,0.00,,,0.00,meteohub,2013-07-06 23:32:00,
2013-07-06 16:37:00,85.6,25.2,29.84,NW,315,10.0,11.0,11,0.00,,,0.00,meteohub,2013-07-06 23:37:00,
2013-07-06 16:42:00,85.1,24.6,29.83,NW,315,8.0,12.0,11,0.00,,,0.00,meteohub,2013-07-06 23:42:00,
2013-07-06 16:47:00,84.9,24.6,29.83,NW,315,9.0,13.0,11,0.00,,,0.00,meteohub,2013-07-06 23:47:00,
2013-07-06 16:53:00,84.7,24.4,29.83,North,0,4.0,13.0,11,0.00,,,0.00,meteohub,2013-07-06 23:53:00,
2013-07-06 17:00:00,84.7,24.4,29.83,North,0,7.0,13.0,11,0.00,,,0.00,meteohub,2013-07-07 00:00:00,
2013-07-06 17:06:00,85.1,24.6,29.83,North,0,7.0,13.0,11,0.00,,,0.00,meteohub,2013-07-07 00:06:00,
2013-07-06 17:12:00,85.5,25.0,29.83,North,0,9.0,9.0,11,0.00,,,0.00,meteohub,2013-07-07 00:12:00,
2013-07-06 17:18:00,84.6,24.3,29.83,North,0,6.0,10.0,11,0.00,,,0.00,meteohub,2013-07-07 00:18:00,
2013-07-06 17:26:00,84.6,24.3,29.83,North,0,8.0,10.0,11,0.00,,,0.00,meteohub,2013-07-07 00:26:00,
2013-07-06 17:31:00,84.7,24.4,29.83,West,270,10.0,10.0,11,0.00,,,0.00,meteohub,2013-07-07 00:31:00,
2013-07-06 17:37:00,84.2,24.1,29.82,North,0,4.0,11.0,11,0.00,,,0.00,meteohub,2013-07-07 00:37:00,
2013-07-06 17:42:00,84.0,25.9,29.83,North,0,6.0,11.0,12,0.00,,,0.00,meteohub,2013-07-07 00:42:00,
2013-07-06 17:47:00,84.0,25.9,29.82,East,90,6.0,11.0,12,0.00,,,0.00,meteohub,2013-07-07 00:47:00,
2013-07-06 17:53:00,84.2,24.1,29.82,North,0,5.0,10.0,11,0.00,,,0.00,meteohub,2013-07-07 00:53:00,
2013-07-06 17:59:00,83.8,25.9,29.82,NW,315,4.0,10.0,12,0.00,,,0.00,meteohub,2013-07-07 00:59:00,
2013-07-06 18:05:00,83.8,25.9,29.82,North,0,6.0,12.0,12,0.00,,,0.00,meteohub,2013-07-07 01:05:00,
2013-07-06 18:12:00,83.7,25.7,29.82,NW,315,7.0,12.0,12,0.00,,,0.00,meteohub,2013-07-07 01:12:00,
2013-07-06 18:17:00,83.5,25.5,29.82,NW,315,10.0,12.0,12,0.00,,,0.00,meteohub,2013-07-07 01:17:00,
2013-07-06 18:22:00,83.3,25.3,29.82,NW,315,4.0,10.0,12,0.00,,,0.00,meteohub,2013-07-07 01:22:00,
2013-07-06 18:27:00,82.8,25.0,29.82,North,0,7.0,10.0,12,0.00,,,0.00,meteohub,2013-07-07 01:27:00,
2013-07-06 18:34:00,82.8,25.0,29.82,North,0,6.0,11.0,12,0.00,,,0.00,meteohub,2013-07-07 01:34:00,
2013-07-06 18:41:00,82.6,24.8,29.82,WNW,293,6.0,16.0,12,0.00,,,0.00,meteohub,2013-07-07 01:41:00,
2013-07-06 18:47:00,82.2,20.3,29.81,NW,315,4.0,16.0,10,0.00,,,0.00,meteohub,2013-07-07 01:47:00,
2013-07-06 18:53:00,82.0,20.1,29.82,North,0,4.0,8.0,10,0.00,,,0.00,meteohub,2013-07-07 01:53:00,
2013-07-06 19:00:00,81.7,19.8,29.82,North,0,5.0,8.0,10,0.00,,,0.00,meteohub,2013-07-07 02:00:00,
2013-07-06 19:07:00,81.5,19.8,29.82,NE,45,4.0,9.0,10,0.00,,,0.00,meteohub,2013-07-07 02:07:00,
2013-07-06 19:12:00,81.3,19.6,29.82,North,0,5.0,9.0,10,0.00,,,0.00,meteohub,2013-07-07 02:12:00,
2013-07-06 19:17:00,81.3,19.6,29.82,North,0,5.0,8.0,10,0.00,,,0.00,meteohub,2013-07-07 02:17:00,
2013-07-06 19:23:00,81.0,19.2,29.82,North,0,6.0,8.0,10,0.00,,,0.00,meteohub,2013-07-07 02:23:00,
2013-07-06 19:28:00,80.8,19.2,29.83,SW,225,4.0,11.0,10,0.00,,,0.00,meteohub,2013-07-07 02:28:00,
2013-07-06 19:35:00,80.4,18.9,29.82,NE,45,3.0,11.0,10,0.00,,,0.00,meteohub,2013-07-07 02:35:00,
2013-07-06 19:41:00,80.1,18.5,29.83,NW,315,7.0,9.0,10,0.00,,,0.00,meteohub,2013-07-07 02:41:00,
2013-07-06 19:47:00,79.9,18.5,29.83,North,0,4.0,8.0,10,0.00,,,0.00,meteohub,2013-07-07 02:47:00,
2013-07-06 19:52:00,79.7,18.3,29.83,NE,45,5.0,8.0,10,0.00,,,0.00,meteohub,2013-07-07 02:52:00,
2013-07-06 19:57:00,79.3,18.0,29.83,East,90,8.0,8.0,10,0.00,,,0.00,meteohub,2013-07-07 02:57:00,
2013-07-06 20:02:00,79.2,18.0,29.82,North,0,8.0,11.0,10,0.00,,,0.00,meteohub,2013-07-07 03:02:00,
2013-07-06 20:07:00,78.6,19.8,29.83,North,0,4.0,11.0,11,0.00,,,0.00,meteohub,2013-07-07 03:07:00,
2013-07-06 20:12:00,78.4,19.6,29.83,WNW,293,6.0,11.0,11,0.00,,,0.00,meteohub,2013-07-07 03:12:00,
2013-07-06 20:17:00,78.1,21.4,29.83,NW,315,2.0,9.0,12,0.00,,,0.00,meteohub,2013-07-07 03:17:00,
2013-07-06 20:22:00,77.7,23.0,29.84,NW,315,7.0,9.0,13,0.00,,,0.00,meteohub,2013-07-07 03:22:00,
2013-07-06 20:27:00,77.4,26.1,29.83,NW,315,4.0,9.0,15,0.00,,,0.00,meteohub,2013-07-07 03:27:00,
2013-07-06 20:32:00,77.2,28.9,29.84,NW,315,7.0,8.0,17,0.00,,,0.00,meteohub,2013-07-07 03:32:00,
2013-07-06 20:39:00,76.5,33.6,29.84,NW,315,6.0,8.0,21,0.00,,,0.00,meteohub,2013-07-07 03:39:00,
2013-07-06 20:46:00,75.9,33.3,29.84,NW,315,3.0,8.0,21,0.00,,,0.00,meteohub,2013-07-07 03:46:00,
2013-07-06 20:52:00,75.4,34.0,29.85,NW,315,5.0,8.0,22,0.00,,,0.00,meteohub,2013-07-07 03:52:00,
2013-07-06 20:57:00,75.0,34.7,29.85,NW,315,2.0,8.0,23,0.00,,,0.00,meteohub,2013-07-07 03:57:00,
2013-07-06 21:01:00,74.7,34.3,29.85,West,270,3.0,6.0,23,0.00,,,0.00,meteohub,2013-07-07 04:01:00,
2013-07-06 21:02:00,74.7,34.3,29.85,North,0,4.0,6.0,23,0.00,,,0.00,meteohub,2013-07-07 04:02:00,
2013-07-06 21:08:00,74.1,35.1,29.85,NNE,23,2.0,6.0,24,0.00,,,0.00,meteohub,2013-07-07 04:08:00,
2013-07-06 21:12:00,73.9,34.9,29.85,North,0,3.0,4.0,24,0.00,,,0.00,meteohub,2013-07-07 04:12:00,
2013-07-06 21:18:00,73.4,34.3,29.85,NW,315,4.0,4.0,24,0.00,,,0.00,meteohub,2013-07-07 04:18:00,
2013-07-06 21:24:00,72.9,34.0,29.86,West,270,5.0,5.0,24,0.00,,,0.00,meteohub,2013-07-07 04:24:00,
2013-07-06 21:30:00,72.9,34.0,29.86,West,270,4.0,7.0,24,0.00,,,0.00,meteohub,2013-07-07 04:30:00,
2013-07-06 21:32:00,72.7,33.8,29.86,NW,315,4.0,7.0,24,0.00,,,0.00,meteohub,2013-07-07 04:32:00,
2013-07-06 21:38:00,72.3,33.4,29.86,NW,315,2.0,8.0,24,0.00,,,0.00,meteohub,2013-07-07 04:38:00,
2013-07-06 21:44:00,72.1,33.4,29.86,NE,45,4.0,8.0,24,0.00,,,0.00,meteohub,2013-07-07 04:44:00,
2013-07-06 21:51:00,71.8,32.0,29.86,NW,315,5.0,7.0,23,0.00,,,0.00,meteohub,2013-07-07 04:51:00,
2013-07-06 21:57:00,71.4,32.7,29.87,NW,315,3.0,7.0,24,0.00,,,0.00,meteohub,2013-07-07 04:57:00,
2013-07-06 22:02:00,71.2,32.5,29.87,North,0,4.0,7.0,24,0.00,,,0.00,meteohub,2013-07-07 05:02:00,
2013-07-06 22:07:00,71.2,32.5,29.87,NW,315,5.0,6.0,24,0.00,,,0.00,meteohub,2013-07-07 05:07:00,
2013-07-06 22:12:00,71.1,32.4,29.87,NW,315,6.0,8.0,24,0.00,,,0.00,meteohub,2013-07-07 05:12:00,
2013-07-06 22:17:00,71.1,31.5,29.87,NW,315,8.0,8.0,23,0.00,,,0.00,meteohub,2013-07-07 05:17:00,
2013-07-06 22:22:00,71.1,31.5,29.88,NW,315,6.0,8.0,23,0.00,,,0.00,meteohub,2013-07-07 05:22:00,
2013-07-06 22:27:00,70.9,32.4,29.87,NW,315,7.0,8.0,24,0.00,,,0.00,meteohub,2013-07-07 05:27:00,
2013-07-06 22:32:00,70.7,32.2,29.87,SW,225,4.0,8.0,24,0.00,,,0.00,meteohub,2013-07-07 05:32:00,
2013-07-06 22:37:00,70.3,31.8,29.88,NW,315,4.0,8.0,24,0.00,,,0.00,meteohub,2013-07-07 05:37:00,
2013-07-06 22:42:00,70.2,32.7,29.88,NE,45,3.0,8.0,25,0.00,,,0.00,meteohub,2013-07-07 05:42:00,
2013-07-06 22:47:00,69.8,33.4,29.88,NW,315,6.0,8.0,26,0.00,,,0.00,meteohub,2013-07-07 05:47:00,
2013-07-06 22:52:00,69.4,34.9,29.87,West,270,2.0,6.0,28,0.00,,,0.00,meteohub,2013-07-07 05:52:00,
2013-07-06 22:57:00,69.1,34.5,29.88,NW,315,3.0,6.0,28,0.00,,,0.00,meteohub,2013-07-07 05:57:00,
2013-07-06 23:02:00,68.7,35.2,29.88,SW,225,2.0,6.0,29,0.00,,,0.00,meteohub,2013-07-07 06:02:00,
2013-07-06 23:07:00,68.5,36.0,29.88,West,270,2.0,4.0,30,0.00,,,0.00,meteohub,2013-07-07 06:07:00,
2013-07-06 23:12:00,68.4,36.5,29.88,NW,315,3.0,4.0,31,0.00,,,0.00,meteohub,2013-07-07 06:12:00,
2013-07-06 23:17:00,68.2,37.2,29.88,West,270,4.0,7.0,32,0.00,,,0.00,meteohub,2013-07-07 06:17:00,
2013-07-06 23:23:00,68.0,39.4,29.88,West,270,2.0,7.0,35,0.00,,,0.00,meteohub,2013-07-07 06:23:00,
2013-07-06 23:29:00,67.6,40.5,29.88,NW,315,3.0,7.0,37,0.00,,,0.00,meteohub,2013-07-07 06:29:00,
2013-07-06 23:35:00,67.1,42.6,29.88,NNW,338,4.0,4.0,41,0.00,,,0.00,meteohub,2013-07-07 06:35:00,
2013-07-06 23:41:00,66.7,44.8,29.88,West,270,4.0,5.0,45,0.00,,,0.00,meteohub,2013-07-07 06:41:00,
2013-07-06 23:47:00,66.6,46.2,29.88,North,0,2.0,5.0,48,0.00,,,0.00,meteohub,2013-07-07 06:47:00,
2013-07-06 23:52:00,66.4,47.7,29.88,North,0,4.0,5.0,51,0.00,,,0.00,meteohub,2013-07-07 06:52:00,
2013-07-06 23:57:00,66.0,48.4,29.88,West,270,4.0,5.0,53,0.00,,,0.00,meteohub,2013-07-07 06:57:00,